星链-36286(STARLINK-36286)

导读

STARLINK-36286(NORAD编号69162)是美国太空探索技术公司(SpaceX)星链(Starlink)互联网星座中的一颗低轨卫星。星链项目旨在通过大规模低轨卫星星座,为全球提供低成本、高性能的天基互联网接入服务。 该卫星运行在近地轨道,参与星座组网以增强全球网络覆盖能力。作为SpaceX批量发射部署的星链卫星之一,它采用了星链标准卫星平台设计,参与提供宽带互联网通信服务。目前这类卫星主要服务于全球多个地区的互联网接入需求,是星链大规模星座组网进程中的一颗在轨单元。

Basic Information
目录编号:
69162
目录名称:
STARLINK-36286
国际标识:
2026-111Q
轨道中心:
EARTH
卫星名称:
星链-36286
卫星全名:
星链-36286(STARLINK-36286)
卫星状态:
在轨 (已飞行106 天)
发射日期:
2026-05-21 UTC
国别 :
美国 (US)
星等 :
--
Orbit Information
数据来源 国际轨道数据
星历时间: 2026-09-04T01:29:32+0800
12小时前
查看轨道信息
半长轴: 6840.855km
偏心率: 0.0001084
轨道倾角: 53.157°
近地点辐角 89.466°
升交点赤经 144.150°
平近点角 270.647°
近地点: 461.976km
远地点: 463.46km
周期: 93.848分钟
每日圈数: 15.343951
Detailed Information
固有亮度:
5
最大亮度:
2.5
卫星平台:
Starlink V1.0
覆盖范围:
全球
运营商:
太空探索技术公司
运营商所在国:
美国
制造商(研发单位):
太空探索技术公司
制造商所在国:
美国
使用方式:
暂无
Satellite Introduction
Starlink 计划是 SpaceX 推出的全球卫星互联网项目,通过发射低轨道卫星,为全球尤其是偏远地区提供高速、低延迟的互联网服务。自 2019 年起,Starlink 已部署数千颗卫星,旨在缩小全球数字鸿沟,推动互联网普及。该项目还为军事、航空等行业提供通信支持,带来广泛经济效益。
2D Orbit Map
3D Orbit Map
Orbit Altitude Analysis Chart
Orbit Inclination Analysis Chart
Orbit Comprehensive Analysis Chart
View Comprehensive Chart
Conjunction Data List
Event ID Objects TCA Miss Dist (km) Collision Risk Probability Collision Risk Index (CRI) Action
CDM_260905-151806-121506-916221
2026-09-05T
15:18:38+0000
0.470 km
远距离
1.507105E-4 高风险 0.79
CDM_260904-210506-403606-916221
2026-09-04T
21:05:56+0000
1.577 km
极远距离
4.809142E-6 低风险 0.49
CDM_260905-134406-121506-916221
2026-09-05T
13:44:50+0000
1.537 km
极远距离
3.695469E-6 低风险 0.46